Location: Sortland
(68.7020°N, 15.4240°E)
Time: 01:41:10
(UTC+01:00)

Envisat - Pass Details

Date: 27 October 2019
Orbit: 764 x 766 km, 98.1° (Epoch: 20 November)

Event Time Altitude Azimuth Distance (km) Brightness Sun altitude
Rises 17:35:22 0° 167° (SSE) 3,233 6.2 -11.3°
Reaches altitude 10° 17:37:42 10° 171° (S) 2,309 5.5 -11.5°
Maximum altitude 17:42:46 65° 253° (WSW) 847 3.5 -12.0°
Drops below altitude 10° 17:47:52 10° 336° (NNW) 2,320 5.8 -12.5°
Sets 17:50:12 0° 340° (NNW) 3,250 6.5 -12.7°
